Location: Miles
(41.4492°N, 81.6087°W)
Time: 21:17:33
(UTC+00:00)

Vanguard 2 Rocket - Pass Details

Date: 25 September 2024
Orbit: 553 x 3298 km, 32.9° (Epoch: 12 October)

Event Time Altitude Azimuth Distance (km) Brightness Sun altitude
Rises 05:06:17 0° 245° (WSW) 3,310 - -49.5°
Reaches altitude 10° 05:08:25 10° 238° (WSW) 2,591 - -49.5°
Maximum altitude 05:14:19 45° 167° (SSE) 1,672 - -49.6°
Drops below altitude 10° 05:24:20 10° 100° (E) 4,367 - -49.6°
Exits shadow 05:25:57 - 98° (E) 4,878 10.6 -49.6°
Sets 05:29:02 0° 95° (E) 5,839 11.0 -49.5°
